Location: Northcutt
(34.7304°N, 84.4305°W)
Time: 03:15:50
(UTC+00:00)

Vanguard 2 - Pass Details

Date: 07 October 2022
Orbit: 553 x 2933 km, 32.9° (Epoch: 05 December)

Event Time Altitude Azimuth Distance (km) Brightness Sun altitude
Rises 00:06:56 0° 283° (WNW) 6,247 14.1 -11.5°
Reaches altitude 10° 00:11:17 10° 275° (W) 5,455 13.4 -12.4°
Maximum altitude 00:25:53 36° 217° (SW) 3,993 11.4 -15.4°
Drops below altitude 10° 00:40:22 10° 158° (SSE) 5,371 11.5 -18.4°
Sets 00:44:41 0° 150° (SSE) 6,139 11.8 -19.3°
